Location: Sunkist
(34.0772°N, 117.1909°W)
Time: 15:55:07
(UTC+00:00)

Cosmos 1461 - Pass Details

Date: 13 April 2024
Orbit: 499 x 586 km, 65.0° (Epoch: 19 May)

Event Time Altitude Azimuth Distance (km) Brightness Sun altitude
Rises 12:15:21 0° 322° (NW) 2,598 6.1 -13.6°
Reaches altitude 10° 12:17:37 10° 315° (NW) 1,706 5.1 -13.1°
Maximum altitude 12:21:09 38° 246° (WSW) 775 3.1 -12.4°
Drops below altitude 10° 12:24:40 10° 177° (S) 1,696 5.1 -11.8°
Sets 12:26:55 0° 169° (S) 2,581 6.2 -11.3°
